User: anonymous   Login
Location: Erlenbrunn
(49.1717°N, 7.6142°E)
Time: 02:02:48
(UTC+00:00)
Language:

CZ-2C R/B - Orbit

View from above orbital plane
View from above orbital plane
View from above satellite
View from above satellite

Ground track
Ground track

The orbit data is extracted from the following two-line orbital elements,

1 28480U 04046B   21059.52051097  .00000054  00000-0  35431-4 0  9991
2 28480  98.0574  80.2760 0141797 186.1413 327.9428 14.25742393846905
Epoch (UTC): 28 February 2021 12:29:32
Eccentricity: 0.0141797
inclination: 98.0574°
perigee height: 704 km
apogee height: 908 km
right ascension of ascending node: 80.2760°
argument of perigee: 186.1413°
revolutions per day: 14.25742393
mean anomaly at epoch: 327.9428°
orbit number at epoch: 84690

The dashed part of the orbit path shows where the satellite is in the earth's shadow,  

DLR